This demonstration page uses our WeatherBlox Daily Observations layout. Learn more.

Left ArrowRight Arrow

41.12389, -100.76542

Hourly Observations for July 24, 2015

Temp ( °F °C ) Dew Point ( °F °C ) Humidity (%) Winds ( mph kmh ) Pressure ( in mb ) Visibility ( mi km ) Precip ( " mm )
12:53 am 00:53 Clear 73 22.8 59 15 62 62 VRB 5 7 29.82 1010 10 16 0.00 0.00
1:53 am 01:53 Clear 74 23.3 65 18.3 74 74 SE 7 11 29.83 1010 10 16 0.00 0.00
2:53 am 02:53 Clear 74 23.3 66 18.9 76 76 S 8 13 29.83 1010 10 16 0.00 0.00
3:53 am 03:53 Clear 74 23.3 67 19.4 79 79 VRB 3 6 29.85 1011 10 16 0.00 0.00
4:53 am 04:53 Clear 71 21.7 67 19.4 87 87 WSW 3 6 29.85 1011 10 16 0.00 0.00
5:53 am 05:53 Clear 67 19.4 64 17.8 91 91 W 5 7 29.87 1011 10 16 0.00 0.00
6:53 am 06:53 Sunny 65 18.3 63 17.2 93 93 Calm 29.88 1012 10 16 0.00 0.00
7:53 am 07:53 Sunny 69 20.6 67 19.4 93 93 WNW 5 7 29.90 1012 10 16 0.00 0.00
8:53 am 08:53 Sunny 76 24.4 68 20 77 77 Calm 29.90 1013 10 16 0.00 0.00
9:53 am 09:53 Sunny 81 27.2 68 20 65 65 N 8 13 29.89 1012 10 16 0.00 0.00
10:53 am 10:53 Sunny 84 28.9 67 19.4 57 57 NE 10 17 29.90 1013 10 16 0.00 0.00
11:53 am 11:53 Sunny 83 28.3 68 20 61 61 ENE 7 11 29.92 1013 10 16 0.00 0.00
12:53 pm 12:53 Partly Cloudy with Light Rain 83 28.3 71 21.7 67 67 S 12 19 29.95 1014 10 16 0.00 0.03
1:02 pm 13:02 Partly Cloudy with Nearby Thunderstorms 86 30 71 21.7 61 61 SSE 6 9 29.83 1010 10 16 0.00 0.03
1:38 pm 13:38 Partly Cloudy with Thunderstorms 85 29.4 71 21.7 63 63 N 13 20 29.88 1012 10 16 0.00 0.03
1:53 pm 13:53 Partly Cloudy with Thunderstorms 82 27.8 67 19.4 60 60 NNE 15 24 29.93 1014 10 16 0.00 0.03
2:04 pm 14:04 Sunny 84 29 66 19 55 55 NE 14 22 29.80 1009 10 16 0.00 0.00
2:51 pm 14:51 Partly Cloudy with Light Rain 79 26 66 19 65 65 N 12 19 29.85 1011 10 16 0.00 0.03
2:53 pm 14:53 Mostly Cloudy with Light Rain 79 26.1 67 19.4 67 67 N 10 17 29.95 1014 10 16 0.00 0.03
3:53 pm 15:53 Sunny 86 30 64 17.8 48 48 ENE 10 17 29.90 1012 10 16 0.00 0.03
4:53 pm 16:53 Sunny 88 31.1 65 18.3 46 46 E 12 19 29.88 1012 10 16 0.00 0.00
5:53 pm 17:53 Sunny 84 28.9 68 20 59 59 ESE 6 9 29.89 1012 10 16 0.00 0.00
6:53 pm 18:53 Sunny 85 29.4 66 18.9 53 53 ESE 7 11 29.88 1012 10 16 0.00 0.00
7:30 pm 19:30 Partly Cloudy with Thunderstorms 84 29 68 20 58 58 Calm 29.74 1007 10 16 0.00 0.00
7:53 pm 19:53 Partly Cloudy with Nearby Thunderstorms 85 29.4 68 20 57 57 ENE 6 9 29.86 1011 10 16 0.00 0.00
8:18 pm 20:18 Partly Cloudy 79 26.1 62 16.7 56 56 SE 16 26 29.83 1010 10 16 0.00 0.00
8:53 pm 20:53 Sunny 73 22.8 63 17.2 71 71 E 13 20 29.95 1014 10 16 0.00 0.00
9:53 pm 21:53 Clear 69 20.6 65 18.3 87 87 ESE 7 11 29.92 1013 10 16 0.00 0.00
10:53 pm 22:53 Clear 70 21.1 66 18.9 87 87 SE 8 13 29.93 1013 10 16 0.00 0.00
11:53 pm 23:53 Clear 68 20 66 18.9 93 93 E 6 9 29.92 1013 10 16 0.00 0.00

Powered by AerisWeather